Regional Weather Roundup
Issued by NWS

Home | Current Version | Previous Version | Text Only | Print | Product List | Glossary On
Versions: 1 2 3 4 5 6 7 8 9 10 11 12 13 14 15 16 17 18 19 20 21 22 23 24 25 26 27 28 29 30 31 32 33 34 35 36 37 38 39 40 41 42 43 44 45 46 47 48 49 50
000
ASUS43 KLSX 010159
RWRMO

WEATHER SUMMARY FOR MISSOURI
NATIONAL WEATHER SERVICE SPRINGFIELD MO
900 PM CDT TUE SEP 30 2014

NOTE: "FAIR" INDICATES FEW OR NO CLOUDS BELOW 12,000 FEET WITH NO
       SIGNIFICANT WEATHER AND/OR OBSTRUCTIONS TO VISIBILITY.
       CURRENT SKY AND/OR WEATHER CONDITIONS ARE NOT AVAILABLE FOR
       CHILLICOTHE AND FARMINGTON.

MOZ001>031-035>038-043-044-053-054-010300-
...NORTHERN AND WESTERN MISSOURI...

CITY           SKY/WX    TMP DP  RH WIND       PRES   REMARKS
KANSAS CTY INT PTCLDY    72  58  61 SE7       29.80R
KANSAS C DTWN  PTCLDY    78  58  49 SE10G23   29.79R
LEE`S SUMMIT   CLEAR     73  58  59 SE5       29.82R
ST JOSEPH      CLOUDY    75  58  55 SE10      29.78R
CHILLICOTHE      N/A     73  63  70 E3        29.84R
KIRKSVILLE     PTCLDY    66  32  28 E10       29.88S

$$
MOZ066>068-077>081-088>096-101>105-010300-
...SOUTHWEST MISSOURI...

CITY           SKY/WX    TMP DP  RH WIND       PRES   REMARKS
SPRINGFIELD    CLEAR     69  56  62 SE7       29.87R
JOPLIN         CLEAR     71  61  70 S8        29.83R

$$
MOZ032>034-039>042-045>050-055>058-069>072-010300-
...CENTRAL MISSOURI...

CITY           SKY/WX    TMP DP  RH WIND       PRES   REMARKS
COLUMBIA       PTCLDY    72  58  61 E8        29.87R
JEFFERSON CITY MOCLDY    70  60  70 E3        29.85R
ROLLA          PTCLDY    70  53  54 S7        29.87R
SEDALIA        CLEAR     70  59  68 SE5       29.85R
OSAGE BEACH    CLEAR     70  57  64 S3        29.87R

$$
MOZ051-052-059>065-010300-
...EAST CENTRAL MISSOURI...

CITY           SKY/WX    TMP DP  RH WIND       PRES   REMARKS
ST LOUIS INTL  NOT AVBL
SPIRIT OF STL  CLEAR    N/A N/A N/A CALM      29.87R
ST CHARLES     CLEAR     68  59  73 E8        29.88R

$$
MOZ072>076-082>087-097>100-106>115-010300-
...SOUTH CENTRAL AND SOUTHEAST MISSOURI...

CITY           SKY/WX    TMP DP  RH WIND       PRES   REMARKS
CAPE GIRARDEAU CLEAR     63  58  83 E3        29.89R
FARMINGTON     CLEAR     68  55  64 CALM      29.93R
POPLAR BLUFF   PTCLDY    65  57  75 CALM      29.87R
WEST PLAINS    CLEAR     63  54  72 CALM      29.91S

$$



USA.gov is the U.S. government's official web portal to all federal, state and local government web resources and services.